When you browse on this site, cookies collect data to enhance your experience and personalize the content and advertising you see.
Visit our Privacy Policy to learn more. By continuing to use the site, you agree to this use of cookies and data.
  • Em Portugal
  • Lista de países
  • Para 7 dias
  • Temperatura da água
  • Mapas de satélite
  • Mapa do tempo
  • Widgets de tempo
  • user-avatar
    Iniciar Sessão

    Previsão horária em Grzedy

    Hoje, 19 Abril, Sexta-feira

    Tempo Temperatura Precipitação Vento Pressão Humidade
    00:00 +8°C° 0 mm 1 m/s 727 mmHg 77%
    01:00 +8°C° 0 mm 1 m/s 727 mmHg 72%
    02:00 +6°C° 0 mm 0 m/s 727 mmHg 72%
    03:00 +6°C° 0 mm 0 m/s 727 mmHg 73%
    04:00 +6°C° 0 mm 0 m/s 727 mmHg 73%
    05:00 +7°C° 0 mm 0 m/s 727 mmHg 69%
    06:00 +9°C° 0 mm 0 m/s 728 mmHg 66%
    07:00 +12°C° 0 mm 1 m/s 728 mmHg 59%
    08:00 +13°C° 0 mm 1 m/s 729 mmHg 54%
    09:00 +15°C° 0 mm 2 m/s 729 mmHg 48%
    10:00 +16°C° 0 mm 3 m/s 729 mmHg 42%
    11:00 +17°C° 0 mm 3 m/s 729 mmHg 42%
    12:00 +17°C° 0 mm 3 m/s 729 mmHg 42%
    13:00 +18°C° 0 mm 3 m/s 729 mmHg 41%
    14:00 +18°C° 0 mm 3 m/s 728 mmHg 43%
    15:00 +18°C° 0 mm 3 m/s 728 mmHg 44%
    16:00 +18°C° 0 mm 3 m/s 728 mmHg 45%
    17:00 +16°C° 0 mm 3 m/s 727 mmHg 53%
    18:00 +14°C° 0 mm 2 m/s 727 mmHg 60%
    19:00 +12°C° 0 mm 2 m/s 727 mmHg 68%
    20:00 +11°C° 0 mm 1 m/s 727 mmHg 70%
    21:00 +10°C° 0 mm 1 m/s 727 mmHg 73%
    22:00 +9°C° 0 mm 1 m/s 727 mmHg 75%
    23:00 +9°C° 0 mm 1 m/s 727 mmHg 75%

    Amanhã, 20 Abril, Sábado

    Tempo Temperatura Precipitação Vento Pressão Humidade
    00:00 +7°C° 0 mm 0 m/s 727 mmHg 74%
    01:00 +7°C° 0 mm 0 m/s 727 mmHg 74%
    02:00 +7°C° 0 mm 0 m/s 727 mmHg 73%
    03:00 +6°C° 0 mm 0 m/s 727 mmHg 73%
    04:00 +6°C° 0 mm 0 m/s 727 mmHg 72%
    05:00 +8°C° 0 mm 0 m/s 727 mmHg 68%
    06:00 +9°C° 0 mm 0 m/s 727 mmHg 64%
    07:00 +11°C° 0 mm 0 m/s 727 mmHg 60%
    08:00 +13°C° 0 mm 1 m/s 727 mmHg 55%
    09:00 +15°C° 0 mm 1 m/s 728 mmHg 49%
    10:00 +17°C° 0 mm 2 m/s 728 mmHg 44%
    11:00 +17°C° 0 mm 2 m/s 727 mmHg 42%
    12:00 +18°C° 0 mm 2 m/s 727 mmHg 41%
    13:00 +18°C° 0 mm 2 m/s 727 mmHg 39%
    14:00 +18°C° 0 mm 3 m/s 726 mmHg 41%
    15:00 +18°C° 0 mm 3 m/s 726 mmHg 43%
    16:00 +17°C° 0 mm 3 m/s 725 mmHg 45%
    17:00 +14°C° 0 mm 3 m/s 725 mmHg 53%
    18:00 +12°C° 0 mm 3 m/s 725 mmHg 60%
    19:00 +10°C° 0 mm 2 m/s 724 mmHg 67%
    20:00 +9°C° 0 mm 2 m/s 724 mmHg 66%
    21:00 +9°C° 0 mm 1 m/s 724 mmHg 65%
    22:00 +8°C° 0 mm 1 m/s 724 mmHg 64%
    23:00 +7°C° 0 mm 1 m/s 724 mmHg 65%

    Depois de amanhã, 21 Abril, Domingo

    Tempo Temperatura Precipitação Vento Pressão Humidade
    00:00 +7°C° 0 mm 1 m/s 724 mmHg 65%
    01:00 +7°C° 0 mm 1 m/s 724 mmHg 65%
    02:00 +6°C° 0 mm 1 m/s 724 mmHg 68%
    03:00 +6°C° 0 mm 1 m/s 723 mmHg 71%
    04:00 +6°C° 0 mm 1 m/s 723 mmHg 74%
    05:00 +7°C° 0 mm 1 m/s 723 mmHg 71%
    06:00 +9°C° 0 mm 1 m/s 723 mmHg 68%
    07:00 +10°C° 0 mm 1 m/s 724 mmHg 65%
    08:00 +11°C° 0 mm 1 m/s 724 mmHg 59%
    09:00 +13°C° 0 mm 2 m/s 723 mmHg 52%
    10:00 +13°C° 0 mm 3 m/s 723 mmHg 46%
    11:00 +14°C° 0 mm 3 m/s 723 mmHg 45%
    12:00 +14°C° 0 mm 3 m/s 723 mmHg 43%
    13:00 +16°C° 0 mm 3 m/s 722 mmHg 42%
    14:00 +16°C° 0 mm 3 m/s 722 mmHg 42%
    15:00 +14°C° 0 mm 3 m/s 721 mmHg 43%
    16:00 +14°C° 0 mm 3 m/s 721 mmHg 44%
    17:00 +13°C° 0 mm 2 m/s 720 mmHg 50%
    18:00 +12°C° 0 mm 2 m/s 720 mmHg 57%
    19:00 +10°C° 0 mm 1 m/s 719 mmHg 63%
    20:00 +9°C° 0 mm 1 m/s 719 mmHg 64%
    21:00 +8°C° 0 mm 1 m/s 719 mmHg 65%
    22:00 +8°C° 0 mm 1 m/s 719 mmHg 65%
    23:00 +7°C° 0 mm 1 m/s 719 mmHg 65%

    22 Abril, Segunda-feira

    Tempo Temperatura Precipitação Vento Pressão Humidade
    00:00 +6°C° 0 mm 0 m/s 718 mmHg 65%
    01:00 +6°C° 0 mm 0 m/s 718 mmHg 66%
    02:00 +6°C° 0 mm 1 m/s 718 mmHg 70%
    03:00 +6°C° 0 mm 1 m/s 717 mmHg 75%
    04:00 +5°C° 0 mm 1 m/s 717 mmHg 80%
    05:00 +6°C° 0.3 mm 1 m/s 717 mmHg 83%
    06:00 +6°C° 0.3 mm 1 m/s 717 mmHg 85%
    07:00 +7°C° 0.3 mm 1 m/s 717 mmHg 88%
    08:00 +6°C° 1.2 mm 2 m/s 717 mmHg 89%
    09:00 +6°C° 1.2 mm 2 m/s 717 mmHg 90%
    10:00 +6°C° 1.2 mm 2 m/s 717 mmHg 91%
    11:00 +9°C° 0.4 mm 3 m/s 717 mmHg 82%
    12:00 +10°C° 0.4 mm 5 m/s 717 mmHg 72%
    13:00 +13°C° 0.4 mm 6 m/s 717 mmHg 63%
    14:00 +12°C° 0.8 mm 5 m/s 716 mmHg 68%
    15:00 +11°C° 0.8 mm 4 m/s 716 mmHg 73%
    16:00 +10°C° 0.8 mm 4 m/s 715 mmHg 78%
    17:00 +9°C° 0.5 mm 3 m/s 715 mmHg 80%
    18:00 +9°C° 0.5 mm 3 m/s 714 mmHg 83%
    19:00 +8°C° 0.5 mm 3 m/s 714 mmHg 86%
    20:00 +8°C° 0.7 mm 3 m/s 714 mmHg 87%
    21:00 +7°C° 0.7 mm 3 m/s 713 mmHg 88%
    22:00 +6°C° 0.7 mm 4 m/s 713 mmHg 90%
    23:00 +6°C° 0.3 mm 4 m/s 713 mmHg 89%

    23 Abril, Terça-feira

    Tempo Temperatura Precipitação Vento Pressão Humidade
    00:00 +6°C° 0.3 mm 4 m/s 713 mmHg 89%
    01:00 +6°C° 0.3 mm 4 m/s 712 mmHg 88%
    02:00 +6°C° 0.1 mm 5 m/s 712 mmHg 88%
    03:00 +7°C° 0.1 mm 5 m/s 712 mmHg 88%
    04:00 +7°C° 0.1 mm 5 m/s 712 mmHg 88%
    05:00 +7°C° 0 mm 6 m/s 712 mmHg 86%
    06:00 +8°C° 0 mm 7 m/s 712 mmHg 85%
    07:00 +8°C° 0 mm 7 m/s 712 mmHg 83%
    08:00 +9°C° 0 mm 8 m/s 712 mmHg 79%
    09:00 +10°C° 0 mm 8 m/s 712 mmHg 74%
    10:00 +11°C° 0 mm 8 m/s 712 mmHg 70%
    11:00 +11°C° 0.1 mm 8 m/s 712 mmHg 70%
    12:00 +11°C° 0.1 mm 8 m/s 712 mmHg 70%
    13:00 +10°C° 0.1 mm 8 m/s 712 mmHg 71%
    14:00 +10°C° 0 mm 7 m/s 712 mmHg 72%
    15:00 +10°C° 0 mm 7 m/s 712 mmHg 74%
    16:00 +9°C° 0 mm 7 m/s 712 mmHg 75%
    17:00 +9°C° 0 mm 6 m/s 712 mmHg 77%
    18:00 +8°C° 0 mm 5 m/s 712 mmHg 79%
    19:00 +8°C° 0 mm 5 m/s 712 mmHg 81%
    20:00 +8°C° 0 mm 5 m/s 712 mmHg 82%
    21:00 +7°C° 0 mm 5 m/s 712 mmHg 84%
    22:00 +7°C° 0 mm 5 m/s 712 mmHg 85%
    23:00 +7°C° 0 mm 4 m/s 712 mmHg 86%

    24 Abril, Quarta-feira

    Tempo Temperatura Precipitação Vento Pressão Humidade
    00:00 +7°C° 0 mm 4 m/s 712 mmHg 88%
    01:00 +8°C° 0 mm 3 m/s 712 mmHg 90%
    02:00 +8°C° 0 mm 3 m/s 712 mmHg 91%
    03:00 +7°C° 0 mm 3 m/s 712 mmHg 92%
    04:00 +7°C° 0 mm 3 m/s 712 mmHg 93%
    05:00 +7°C° 0 mm 4 m/s 712 mmHg 90%
    06:00 +8°C° 0 mm 4 m/s 712 mmHg 87%
    07:00 +9°C° 0 mm 5 m/s 713 mmHg 84%
    08:00 +10°C° 0 mm 5 m/s 713 mmHg 82%
    09:00 +10°C° 0 mm 6 m/s 713 mmHg 80%
    10:00 +11°C° 0 mm 6 m/s 713 mmHg 78%
    11:00 +13°C° 0 mm 6 m/s 713 mmHg 76%
    12:00 +13°C° 0 mm 6 m/s 713 mmHg 74%
    13:00 +14°C° 0 mm 6 m/s 713 mmHg 71%
    14:00 +15°C° 0 mm 6 m/s 713 mmHg 72%
    15:00 +15°C° 0 mm 6 m/s 713 mmHg 72%
    16:00 +16°C° 0 mm 5 m/s 713 mmHg 72%
    17:00 +15°C° 0 mm 5 m/s 713 mmHg 78%
    18:00 +14°C° 0 mm 4 m/s 713 mmHg 83%
    19:00 +13°C° 0 mm 3 m/s 713 mmHg 89%
    20:00 +13°C° 0 mm 3 m/s 713 mmHg 90%
    21:00 +12°C° 0 mm 3 m/s 713 mmHg 92%
    22:00 +11°C° 0 mm 3 m/s 713 mmHg 93%
    23:00 +11°C° 0 mm 3 m/s 713 mmHg 94%
    Mostrar mais